AAY90 KCHA-KLAS

Flight info

Callsign AAY90
Flight time 3h 50m
Altitude 34000
Route WLDER RZC PER LBL ALS TYEGR CHOWW4
Aircraft A319/M-SDFGIRWYZ/SB1

Departure

Time 2026-05-05 00:58
Airport Chattanooga Metropolitan Airport (Lovell Field) (KCHA)

Arrival

Time 2026-05-05 04:48
Airport Harry Reid International Airport (KLAS)
Time Latitude Longitude Altitude Speed Heading
2026-05-05 00:27 35.03781 -85.19866 691 ft 0 kts 116°
2026-05-05 00:52 35.03787 -85.19885 691 ft 4 kts 83°
2026-05-05 00:52 35.03774 -85.19906 688 ft 2 kts 16°
2026-05-05 00:52 35.03768 -85.19908 691 ft 0 kts 15°
2026-05-05 00:55 35.03774 -85.19907 688 ft 3 kts
2026-05-05 00:55 35.03834 -85.19910 691 ft 13 kts
2026-05-05 00:55 35.03925 -85.19884 685 ft 13 kts 16°
2026-05-05 00:55 35.04015 -85.19856 691 ft 13 kts
2026-05-05 00:56 35.04096 -85.19903 691 ft 12 kts 330°
2026-05-05 00:56 35.04152 -85.19944 692 ft 8 kts 329°
2026-05-05 00:56 35.04188 -85.19988 693 ft 6 kts 297°
2026-05-05 00:56 35.04201 -85.20033 694 ft 5 kts 274°
2026-05-05 00:57 35.04140 -85.20069 694 ft 26 kts 197°
2026-05-05 00:57 35.03723 -85.20221 689 ft 96 kts 197°
2026-05-05 00:57 35.02895 -85.20522 713 ft 147 kts 197°
2026-05-05 00:57 35.01935 -85.20868 1274 ft 142 kts 196°
2026-05-05 00:58 35.00974 -85.21204 1818 ft 145 kts 196°
2026-05-05 00:58 35.00006 -85.21559 2404 ft 146 kts 197°
2026-05-05 00:58 34.98983 -85.21997 2731 ft 167 kts 208°
2026-05-05 00:58 34.98186 -85.23114 2986 ft 191 kts 249°
2026-05-05 00:59 34.98175 -85.24872 3136 ft 226 kts 278°
2026-05-05 00:59 34.98500 -85.26857 3536 ft 251 kts 279°
2026-05-05 00:59 34.98869 -85.29008 4201 ft 264 kts 279°
2026-05-05 00:59 34.99240 -85.31225 5110 ft 268 kts 278°
2026-05-05 01:00 34.99605 -85.33459 6049 ft 270 kts 278°
2026-05-05 01:00 34.99973 -85.35713 6962 ft 272 kts 278°
2026-05-05 01:00 35.00340 -85.37993 7822 ft 277 kts 278°
2026-05-05 01:00 35.00715 -85.40312 8687 ft 279 kts 278°
2026-05-05 01:01 35.01095 -85.42648 9547 ft 283 kts 278°
2026-05-05 01:01 35.01345 -85.44216 10090 ft 285 kts 278°
2026-05-05 01:01 35.01729 -85.46659 10519 ft 304 kts 278°
2026-05-05 01:01 35.02141 -85.49291 10736 ft 327 kts 278°
2026-05-05 01:02 35.02581 -85.52115 10914 ft 350 kts 279°
2026-05-05 01:02 35.03045 -85.55106 11222 ft 365 kts 279°
2026-05-05 01:02 35.03527 -85.58183 11834 ft 371 kts 279°
2026-05-05 01:02 35.04018 -85.61285 12563 ft 373 kts 279°
2026-05-05 01:03 35.04510 -85.64400 13266 ft 375 kts 279°
2026-05-05 01:03 35.05002 -85.67535 13945 ft 378 kts 279°
2026-05-05 01:03 35.05495 -85.70694 14580 ft 381 kts 279°
2026-05-05 01:03 35.05991 -85.73882 15219 ft 383 kts 279°
2026-05-05 01:04 35.06490 -85.77086 15844 ft 386 kts 279°
2026-05-05 01:04 35.07501 -85.83564 17033 ft 390 kts 279°
2026-05-05 01:04 35.08010 -85.86830 17590 ft 393 kts 279°
2026-05-05 01:05 35.08520 -85.90114 18133 ft 395 kts 279°
2026-05-05 01:05 35.09033 -85.93421 18660 ft 398 kts 279°
2026-05-05 01:05 35.09547 -85.96753 19152 ft 400 kts 279°
2026-05-05 01:05 35.10062 -86.00099 19623 ft 403 kts 279°
2026-05-05 01:06 35.10578 -86.03470 20088 ft 405 kts 279°
2026-05-05 01:06 35.11093 -86.06860 20550 ft 407 kts 279°
2026-05-05 01:06 35.11611 -86.10267 20978 ft 410 kts 279°
2026-05-05 01:06 35.12131 -86.13698 21390 ft 412 kts 279°
2026-05-05 01:07 35.12656 -86.17153 21785 ft 415 kts 280°
2026-05-05 01:07 35.13186 -86.20631 22168 ft 418 kts 280°
2026-05-05 01:07 35.13717 -86.24126 22547 ft 420 kts 280°
2026-05-05 01:07 35.14250 -86.27636 22907 ft 422 kts 280°
2026-05-05 01:08 35.14787 -86.31177 23285 ft 424 kts 280°
2026-05-05 01:08 35.15322 -86.34729 23644 ft 426 kts 280°
2026-05-05 01:08 35.15854 -86.38302 23984 ft 429 kts 279°
2026-05-05 01:08 35.16387 -86.41895 24316 ft 431 kts 280°
2026-05-05 01:09 35.16918 -86.45459 24635 ft 433 kts 280°
2026-05-05 01:09 35.17456 -86.49079 24971 ft 434 kts 280°
2026-05-05 01:09 35.17999 -86.52714 25280 ft 436 kts 280°
2026-05-05 01:09 35.18544 -86.56369 25581 ft 437 kts 280°
2026-05-05 01:10 35.19088 -86.60030 25882 ft 439 kts 280°
2026-05-05 01:10 35.19631 -86.63705 26179 ft 440 kts 280°
2026-05-05 01:10 35.20175 -86.67390 26534 ft 440 kts 280°
2026-05-05 01:10 35.20719 -86.71062 26968 ft 438 kts 280°
2026-05-05 01:11 35.21260 -86.74723 27384 ft 437 kts 280°
2026-05-05 01:11 35.21794 -86.78369 27810 ft 435 kts 280°
2026-05-05 01:11 35.22325 -86.82000 28246 ft 433 kts 280°
2026-05-05 01:11 35.22854 -86.85617 28687 ft 431 kts 280°
2026-05-05 01:12 35.23381 -86.89209 29105 ft 429 kts 280°
2026-05-05 01:12 35.23906 -86.92798 29512 ft 428 kts 280°
2026-05-05 01:12 35.24425 -86.96375 29930 ft 426 kts 279°
2026-05-05 01:12 35.24936 -86.99936 30354 ft 424 kts 279°
2026-05-05 01:13 35.25446 -87.03478 30772 ft 422 kts 280°
2026-05-05 01:13 35.25954 -87.07005 31201 ft 420 kts 280°
2026-05-05 01:13 35.26458 -87.10513 31628 ft 417 kts 280°
2026-05-05 01:13 35.26958 -87.14003 32065 ft 415 kts 280°
2026-05-05 01:14 35.27454 -87.17469 32501 ft 413 kts 280°
2026-05-05 01:14 35.27948 -87.20918 32933 ft 410 kts 280°
2026-05-05 01:14 35.28438 -87.24346 33349 ft 408 kts 280°
2026-05-05 01:14 35.28925 -87.27751 33730 ft 406 kts 280°
2026-05-05 01:15 35.29410 -87.31154 33931 ft 405 kts 281°
2026-05-05 01:15 35.29894 -87.34560 33970 ft 408 kts 281°
2026-05-05 01:15 35.30863 -87.41402 33960 ft 409 kts 281°
2026-05-05 01:16 35.31812 -87.48176 33959 ft 409 kts 281°
2026-05-05 01:16 35.32776 -87.55038 33964 ft 409 kts 281°
2026-05-05 01:17 35.33728 -87.61903 33956 ft 409 kts 281°
2026-05-05 01:17 35.34670 -87.68721 33942 ft 409 kts 281°
2026-05-05 01:18 35.35624 -87.75589 33937 ft 409 kts 281°
2026-05-05 01:18 35.36581 -87.82465 33935 ft 410 kts 280°
2026-05-05 01:19 35.37522 -87.89353 33931 ft 410 kts 280°
2026-05-05 01:19 35.38462 -87.96250 33929 ft 410 kts 280°
2026-05-05 01:20 35.39403 -88.03145 33931 ft 410 kts 281°
2026-05-05 01:20 35.40335 -88.10023 33946 ft 409 kts 281°
2026-05-05 01:21 35.41253 -88.16886 33951 ft 407 kts 281°
2026-05-05 01:21 35.42168 -88.23734 33949 ft 407 kts 281°
2026-05-05 01:22 35.43081 -88.30578 33946 ft 406 kts 281°
2026-05-05 01:22 35.43996 -88.37407 33946 ft 406 kts 281°
2026-05-05 01:23 35.44909 -88.44226 33947 ft 405 kts 281°
2026-05-05 01:23 35.45806 -88.51038 33949 ft 404 kts 281°
2026-05-05 01:24 35.46696 -88.57830 33953 ft 403 kts 281°
2026-05-05 01:24 35.47579 -88.64617 33948 ft 402 kts 281°
2026-05-05 01:25 35.48460 -88.71378 33948 ft 401 kts 281°
2026-05-05 01:25 35.49329 -88.78125 33947 ft 400 kts 281°
2026-05-05 01:26 35.50191 -88.84860 33945 ft 399 kts 282°
2026-05-05 01:26 35.51051 -88.91572 33944 ft 397 kts 282°
2026-05-05 01:27 35.51906 -88.98258 33943 ft 396 kts 282°
2026-05-05 01:27 35.52760 -89.04922 33942 ft 395 kts 282°
2026-05-05 01:28 35.53605 -89.11573 33939 ft 394 kts 282°
2026-05-05 01:28 35.54436 -89.18197 33933 ft 392 kts 282°
2026-05-05 01:29 35.55262 -89.24804 33928 ft 392 kts 282°
2026-05-05 01:29 35.56102 -89.31412 33927 ft 390 kts 283°
2026-05-05 01:30 35.57146 -89.37937 33926 ft 389 kts 285°
2026-05-05 01:30 35.58274 -89.44432 33923 ft 388 kts 285°
2026-05-05 01:31 35.59363 -89.50923 33921 ft 388 kts 285°
2026-05-05 01:31 35.60412 -89.57421 33920 ft 387 kts 284°
2026-05-05 01:32 35.61445 -89.63916 33917 ft 387 kts 284°
2026-05-05 01:32 35.62482 -89.70409 33917 ft 387 kts 284°
2026-05-05 01:33 35.63520 -89.76900 33911 ft 387 kts 285°
2026-05-05 01:33 35.64550 -89.83351 33908 ft 387 kts 285°
2026-05-05 01:34 35.65588 -89.89841 33901 ft 387 kts 285°
2026-05-05 01:34 35.66616 -89.96334 33889 ft 386 kts 284°
2026-05-05 01:35 35.67636 -90.02817 33887 ft 386 kts 284°
2026-05-05 01:35 35.68651 -90.09303 33884 ft 386 kts 284°
2026-05-05 01:36 35.69669 -90.15782 33882 ft 386 kts 284°
2026-05-05 01:36 35.70682 -90.22270 33887 ft 386 kts 284°
2026-05-05 01:37 35.71683 -90.28747 33892 ft 385 kts 284°
2026-05-05 01:37 35.72678 -90.35224 33889 ft 385 kts 284°
2026-05-05 01:38 35.73675 -90.41689 33887 ft 384 kts 284°
2026-05-05 01:38 35.74678 -90.48150 33885 ft 384 kts 284°
2026-05-05 01:39 35.75667 -90.54592 33891 ft 383 kts 284°
2026-05-05 01:39 35.76642 -90.61032 33891 ft 382 kts 284°
2026-05-05 01:40 35.77616 -90.67450 33896 ft 381 kts 284°
2026-05-05 01:40 35.78586 -90.73837 33900 ft 379 kts 284°
2026-05-05 01:41 35.79542 -90.80209 33897 ft 377 kts 284°
2026-05-05 01:41 35.80490 -90.86547 33901 ft 376 kts 284°
2026-05-05 01:42 35.81441 -90.92869 33887 ft 376 kts 284°
2026-05-05 01:42 35.82380 -90.99191 33884 ft 374 kts 284°
2026-05-05 01:43 35.83316 -91.05468 33903 ft 370 kts 284°
2026-05-05 01:43 35.84235 -91.11705 33892 ft 369 kts 284°
2026-05-05 01:44 35.84986 -91.16886 33884 ft 366 kts 284°
2026-05-05 01:44 35.85896 -91.23019 33863 ft 366 kts 284°
2026-05-05 01:45 35.86813 -91.29180 33853 ft 364 kts 283°
2026-05-05 01:45 35.87711 -91.35327 33853 ft 366 kts 283°
2026-05-05 01:46 35.88596 -91.41525 33867 ft 366 kts 283°
2026-05-05 01:46 35.89482 -91.47678 33872 ft 363 kts 283°
2026-05-05 01:47 35.90362 -91.53748 33880 ft 358 kts 283°
2026-05-05 01:47 35.91240 -91.59815 33847 ft 361 kts 283°
2026-05-05 01:48 35.92120 -91.65951 33874 ft 362 kts 283°
2026-05-05 01:48 35.92982 -91.72041 33867 ft 360 kts 282°
2026-05-05 01:49 35.93853 -91.78132 33861 ft 361 kts 283°
2026-05-05 01:49 35.94706 -91.84227 33870 ft 359 kts 283°
2026-05-05 01:50 35.95552 -91.90272 33851 ft 356 kts 283°
2026-05-05 01:50 35.96404 -91.96285 33851 ft 355 kts 283°
2026-05-05 01:51 35.97251 -92.02250 33849 ft 357 kts 283°
2026-05-05 01:51 35.98090 -92.08242 33839 ft 353 kts 283°
2026-05-05 01:52 35.98502 -92.11241 33679 ft 357 kts 282°
2026-05-05 01:52 35.98920 -92.14256 33447 ft 356 kts 283°
2026-05-05 01:52 35.99340 -92.17280 33189 ft 359 kts 282°
2026-05-05 01:52 35.99765 -92.20343 32917 ft 366 kts 282°
2026-05-05 01:53 36.00208 -92.23494 32667 ft 369 kts 282°
2026-05-05 01:53 36.00642 -92.26638 32416 ft 372 kts 282°
2026-05-05 01:53 36.01079 -92.29804 32162 ft 376 kts 282°
2026-05-05 01:53 36.01510 -92.32962 31912 ft 379 kts 282°
2026-05-05 01:54 36.01958 -92.36234 31671 ft 383 kts 282°
2026-05-05 01:54 36.02402 -92.39497 31410 ft 386 kts 281°
2026-05-05 01:54 36.02849 -92.42769 31140 ft 388 kts 282°
2026-05-05 01:54 36.03304 -92.46086 30888 ft 394 kts 281°
2026-05-05 01:55 36.03744 -92.49391 30650 ft 396 kts 281°
2026-05-05 01:55 36.04198 -92.52771 30393 ft 400 kts 281°
2026-05-05 01:55 36.04659 -92.56180 30139 ft 404 kts 282°
2026-05-05 01:55 36.05128 -92.59624 29893 ft 408 kts 281°
2026-05-05 01:56 36.06070 -92.66575 29866 ft 413 kts 281°
2026-05-05 01:56 36.07007 -92.73560 29845 ft 412 kts 281°
2026-05-05 01:57 36.07930 -92.80532 29829 ft 411 kts 281°
2026-05-05 01:57 36.08392 -92.84021 29678 ft 411 kts 280°
2026-05-05 01:57 36.08842 -92.87496 29408 ft 409 kts 280°
2026-05-05 01:58 36.09298 -92.90988 29161 ft 414 kts 280°
2026-05-05 01:58 36.09775 -92.94509 28924 ft 414 kts 281°
2026-05-05 01:58 36.10250 -92.98019 28672 ft 415 kts 281°
2026-05-05 01:58 36.10707 -93.01527 28422 ft 414 kts 280°
2026-05-05 01:59 36.11158 -93.05046 28172 ft 414 kts 281°
2026-05-05 01:59 36.11609 -93.08559 27929 ft 415 kts 281°
2026-05-05 01:59 36.12068 -93.12094 27794 ft 417 kts 280°
2026-05-05 01:59 36.12526 -93.15633 27826 ft 417 kts 281°
2026-05-05 02:00 36.12989 -93.19171 27829 ft 418 kts 280°
2026-05-05 02:00 36.13446 -93.22733 27822 ft 419 kts 280°
2026-05-05 02:00 36.13907 -93.26285 27825 ft 416 kts 280°
2026-05-05 02:00 36.14359 -93.29840 27834 ft 420 kts 281°
2026-05-05 02:01 36.14811 -93.33400 27812 ft 420 kts 280°
2026-05-05 02:01 36.15259 -93.36957 27830 ft 418 kts 281°
2026-05-05 02:01 36.15712 -93.40496 27831 ft 417 kts 281°
2026-05-05 02:01 36.16169 -93.44039 27831 ft 416 kts 280°
2026-05-05 02:02 36.16628 -93.47567 27826 ft 415 kts 280°
2026-05-05 02:02 36.17085 -93.51077 27794 ft 412 kts 280°
2026-05-05 02:02 36.17530 -93.54578 27818 ft 415 kts 281°
2026-05-05 02:02 36.17978 -93.58105 27830 ft 414 kts 280°
2026-05-05 02:03 36.18417 -93.61632 27822 ft 414 kts 280°
2026-05-05 02:03 36.18852 -93.65166 27819 ft 415 kts 279°
2026-05-05 02:03 36.19296 -93.68685 27815 ft 414 kts 280°
2026-05-05 02:03 36.19734 -93.72199 27810 ft 415 kts 280°
2026-05-05 02:04 36.20172 -93.75730 27820 ft 416 kts 280°
2026-05-05 02:04 36.20611 -93.79275 27827 ft 415 kts 280°
2026-05-05 02:04 36.21051 -93.82803 27821 ft 415 kts 281°
2026-05-05 02:04 36.21490 -93.86341 27826 ft 416 kts 280°
2026-05-05 02:05 36.21924 -93.89873 27826 ft 415 kts 280°
2026-05-05 02:05 36.22362 -93.93416 27834 ft 416 kts 280°
2026-05-05 02:05 36.22806 -93.96965 27825 ft 417 kts 280°
2026-05-05 02:05 36.23239 -94.00510 27814 ft 417 kts 280°
2026-05-05 02:06 36.23667 -94.04060 27812 ft 418 kts 280°
2026-05-05 02:06 36.24095 -94.07622 27831 ft 417 kts 280°
2026-05-05 02:06 36.24528 -94.11145 27826 ft 414 kts 280°
2026-05-05 02:06 36.24993 -94.14599 27816 ft 411 kts 282°
2026-05-05 02:07 36.25563 -94.18069 27802 ft 412 kts 283°
2026-05-05 02:07 36.26197 -94.21526 27827 ft 414 kts 284°
2026-05-05 02:07 36.26858 -94.25001 27832 ft 413 kts 284°
2026-05-05 02:07 36.27520 -94.28459 27836 ft 415 kts 284°
2026-05-05 02:08 36.28172 -94.31933 27825 ft 413 kts 283°
2026-05-05 02:08 36.28803 -94.35413 27822 ft 416 kts 283°
2026-05-05 02:08 36.29420 -94.38922 27831 ft 416 kts 283°
2026-05-05 02:08 36.30027 -94.42435 27831 ft 417 kts 283°
2026-05-05 02:09 36.30629 -94.45950 27841 ft 418 kts 283°
2026-05-05 02:09 36.31231 -94.49467 27846 ft 416 kts 283°
2026-05-05 02:09 36.31834 -94.52970 27834 ft 415 kts 283°
2026-05-05 02:09 36.32444 -94.56463 27834 ft 414 kts 284°
2026-05-05 02:10 36.33069 -94.59943 27831 ft 415 kts 284°
2026-05-05 02:10 36.33680 -94.63419 27806 ft 411 kts 283°
2026-05-05 02:10 36.34285 -94.66879 27808 ft 412 kts 283°
2026-05-05 02:10 36.34887 -94.70346 27833 ft 411 kts 283°
2026-05-05 02:11 36.35485 -94.73821 27838 ft 412 kts 283°
2026-05-05 02:11 36.36076 -94.77294 27831 ft 411 kts 283°
2026-05-05 02:11 36.36668 -94.80765 27832 ft 411 kts 283°
2026-05-05 02:11 36.37265 -94.84231 27833 ft 410 kts 283°
2026-05-05 02:12 36.37869 -94.87698 27825 ft 411 kts 283°
2026-05-05 02:12 36.39060 -94.94663 27812 ft 413 kts 283°
2026-05-05 02:12 36.39642 -94.98082 27804 ft 409 kts 283°
2026-05-05 02:13 36.40233 -95.01568 27805 ft 407 kts 282°
2026-05-05 02:13 36.40820 -95.05005 27798 ft 407 kts 282°
2026-05-05 02:13 36.41403 -95.08452 27798 ft 410 kts 283°
2026-05-05 02:13 36.41980 -95.11856 27783 ft 408 kts 283°
2026-05-05 02:14 36.42572 -95.15343 27780 ft 407 kts 283°
2026-05-05 02:14 36.43148 -95.18738 27780 ft 407 kts 283°
2026-05-05 02:14 36.43726 -95.22175 27774 ft 407 kts 283°
2026-05-05 02:14 36.44301 -95.25613 27776 ft 407 kts 283°
2026-05-05 02:15 36.44874 -95.29047 27783 ft 406 kts 283°
2026-05-05 02:15 36.45446 -95.32480 27779 ft 406 kts 283°
2026-05-05 02:15 36.46018 -95.35907 27777 ft 405 kts 283°
2026-05-05 02:15 36.46592 -95.39338 27781 ft 405 kts 283°
2026-05-05 02:16 36.47170 -95.42770 27778 ft 406 kts 283°
2026-05-05 02:16 36.47743 -95.46194 27780 ft 404 kts 283°
2026-05-05 02:16 36.48309 -95.49606 27781 ft 403 kts 283°
2026-05-05 02:16 36.48872 -95.53020 27775 ft 403 kts 283°
2026-05-05 02:17 36.49435 -95.56432 27778 ft 403 kts 283°
2026-05-05 02:17 36.49998 -95.59840 27774 ft 402 kts 283°
2026-05-05 02:17 36.50558 -95.63248 27772 ft 402 kts 283°
2026-05-05 02:17 36.51117 -95.66649 27768 ft 401 kts 283°
2026-05-05 02:18 36.51675 -95.70046 27766 ft 401 kts 283°
2026-05-05 02:18 36.52233 -95.73439 27760 ft 401 kts 283°
2026-05-05 02:18 36.52789 -95.76838 27756 ft 401 kts 283°
2026-05-05 02:18 36.53343 -95.80239 27750 ft 401 kts 283°
2026-05-05 02:19 36.53897 -95.83631 27747 ft 401 kts 283°
2026-05-05 02:19 36.54451 -95.87030 27747 ft 401 kts 283°
2026-05-05 02:19 36.55002 -95.90432 27750 ft 401 kts 283°
2026-05-05 02:19 36.55553 -95.93833 27746 ft 401 kts 283°
2026-05-05 02:20 36.56102 -95.97234 27749 ft 402 kts 282°
2026-05-05 02:20 36.56648 -96.00642 27753 ft 401 kts 283°
2026-05-05 02:20 36.57193 -96.04047 27756 ft 401 kts 282°
2026-05-05 02:20 36.57739 -96.07441 27755 ft 401 kts 282°
2026-05-05 02:21 36.58287 -96.10838 27755 ft 400 kts 283°
2026-05-05 02:21 36.58831 -96.14229 27751 ft 399 kts 283°
2026-05-05 02:21 36.59374 -96.17614 27748 ft 399 kts 283°
2026-05-05 02:21 36.59914 -96.20991 27737 ft 398 kts 282°
2026-05-05 02:22 36.60457 -96.24369 27737 ft 398 kts 283°
2026-05-05 02:22 36.60998 -96.27753 27739 ft 398 kts 282°
2026-05-05 02:22 36.61533 -96.31133 27736 ft 398 kts 282°
2026-05-05 02:22 36.62067 -96.34516 27730 ft 398 kts 282°
2026-05-05 02:23 36.62603 -96.37899 27727 ft 398 kts 282°
2026-05-05 02:23 36.63129 -96.41238 27716 ft 398 kts 282°
2026-05-05 02:23 36.63668 -96.44663 27718 ft 398 kts 282°
2026-05-05 02:23 36.64192 -96.48004 27710 ft 399 kts 282°
2026-05-05 02:24 36.64719 -96.51392 27711 ft 399 kts 282°
2026-05-05 02:24 36.65246 -96.54780 27704 ft 399 kts 282°
2026-05-05 02:24 36.65783 -96.58222 27703 ft 399 kts 282°
2026-05-05 02:24 36.66308 -96.61569 27700 ft 399 kts 282°
2026-05-05 02:25 36.66839 -96.64965 27700 ft 399 kts 282°
2026-05-05 02:25 36.67368 -96.68362 27699 ft 400 kts 282°
2026-05-05 02:25 36.67904 -96.71811 27695 ft 400 kts 282°
2026-05-05 02:25 36.68423 -96.75168 27696 ft 400 kts 282°
2026-05-05 02:26 36.68949 -96.78573 27700 ft 400 kts 282°
2026-05-05 02:26 36.69471 -96.81974 27696 ft 400 kts 282°
2026-05-05 02:26 36.69990 -96.85380 27689 ft 400 kts 282°
2026-05-05 02:26 36.70513 -96.88825 27689 ft 400 kts 282°
2026-05-05 02:27 36.71029 -96.92222 27683 ft 399 kts 282°
2026-05-05 02:27 36.71549 -96.95619 27678 ft 399 kts 282°
2026-05-05 02:27 36.72065 -96.98973 27674 ft 399 kts 282°
2026-05-05 02:27 36.72416 -97.01267 27673 ft 399 kts 282°
2026-05-05 02:28 36.72934 -97.04667 27670 ft 400 kts 282°
2026-05-05 02:28 36.73617 -97.09179 27673 ft 400 kts 282°
2026-05-05 02:28 36.73965 -97.11479 27672 ft 400 kts 282°
2026-05-05 02:28 36.74480 -97.14884 27674 ft 400 kts 282°
2026-05-05 02:29 36.74939 -97.18306 27673 ft 401 kts 280°
2026-05-05 02:29 36.75309 -97.21758 27675 ft 402 kts 278°
2026-05-05 02:29 36.75621 -97.25219 27679 ft 402 kts 278°
2026-05-05 02:29 36.75908 -97.28686 27681 ft 402 kts 278°
2026-05-05 02:30 36.76199 -97.32146 27680 ft 401 kts 278°
2026-05-05 02:30 36.76496 -97.35601 27684 ft 401 kts 278°
2026-05-05 02:30 36.76805 -97.39060 27686 ft 401 kts 278°
2026-05-05 02:30 36.77121 -97.42515 27683 ft 402 kts 278°
2026-05-05 02:31 36.77442 -97.45977 27693 ft 401 kts 278°
2026-05-05 02:31 36.77767 -97.49432 27700 ft 400 kts 278°
2026-05-05 02:31 36.78090 -97.52882 27697 ft 401 kts 278°
2026-05-05 02:31 36.78401 -97.56292 27700 ft 400 kts 278°
2026-05-05 02:32 36.78717 -97.59783 27698 ft 400 kts 278°
2026-05-05 02:32 36.79028 -97.63233 27698 ft 400 kts 278°
2026-05-05 02:32 36.79337 -97.66683 27691 ft 399 kts 278°
2026-05-05 02:32 36.79638 -97.70084 27686 ft 400 kts 278°
2026-05-05 02:33 36.79943 -97.73531 27681 ft 400 kts 278°
2026-05-05 02:33 36.80255 -97.76981 27676 ft 400 kts 278°
2026-05-05 02:33 36.80565 -97.80424 27670 ft 399 kts 278°
2026-05-05 02:33 36.80872 -97.83861 27657 ft 399 kts 278°
2026-05-05 02:34 36.81177 -97.87303 27647 ft 398 kts 278°
2026-05-05 02:34 36.81480 -97.90739 27645 ft 399 kts 278°
2026-05-05 02:34 36.81784 -97.94185 27645 ft 400 kts 278°
2026-05-05 02:34 36.82086 -97.97635 27652 ft 400 kts 278°
2026-05-05 02:35 36.82390 -98.01089 27654 ft 400 kts 278°
2026-05-05 02:35 36.82691 -98.04540 27652 ft 400 kts 278°
2026-05-05 02:35 36.82988 -98.07985 27644 ft 399 kts 278°
2026-05-05 02:35 36.83283 -98.11427 27637 ft 399 kts 278°
2026-05-05 02:36 36.83574 -98.14854 27631 ft 397 kts 278°
2026-05-05 02:36 36.83867 -98.18284 27626 ft 398 kts 278°
2026-05-05 02:36 36.84164 -98.21719 27616 ft 398 kts 278°
2026-05-05 02:36 36.84460 -98.25152 27613 ft 396 kts 278°
2026-05-05 02:37 36.84750 -98.28566 27602 ft 396 kts 278°
2026-05-05 02:37 36.85037 -98.31981 27603 ft 396 kts 278°
2026-05-05 02:37 36.85324 -98.35404 27603 ft 397 kts 278°
2026-05-05 02:37 36.85612 -98.38825 27600 ft 397 kts 278°
2026-05-05 02:38 36.85899 -98.42256 27599 ft 396 kts 278°
2026-05-05 02:38 36.86183 -98.45681 27603 ft 397 kts 277°
2026-05-05 02:38 36.86467 -98.49106 27602 ft 398 kts 278°
2026-05-05 02:38 36.86757 -98.52549 27597 ft 399 kts 277°
2026-05-05 02:39 36.87041 -98.55987 27580 ft 397 kts 277°
2026-05-05 02:39 36.87323 -98.59431 27574 ft 399 kts 277°
2026-05-05 02:39 36.87612 -98.62877 27581 ft 398 kts 277°
2026-05-05 02:39 36.87898 -98.66320 27587 ft 399 kts 277°
2026-05-05 02:40 36.88176 -98.69770 27582 ft 399 kts 277°
2026-05-05 02:40 36.88452 -98.73219 27585 ft 400 kts 277°
2026-05-05 02:40 36.88729 -98.76676 27591 ft 400 kts 277°
2026-05-05 02:40 36.89004 -98.80132 27585 ft 401 kts 277°
2026-05-05 02:41 36.89279 -98.83597 27591 ft 400 kts 277°
2026-05-05 02:41 36.89553 -98.87059 27588 ft 400 kts 277°
2026-05-05 02:41 36.89827 -98.90518 27589 ft 400 kts 277°
2026-05-05 02:41 36.90103 -98.93975 27587 ft 400 kts 277°
2026-05-05 02:42 36.90378 -98.97447 27588 ft 402 kts 277°
2026-05-05 02:42 36.90651 -99.00913 27595 ft 401 kts 277°
2026-05-05 02:42 36.90924 -99.04377 27610 ft 401 kts 277°
2026-05-05 02:42 36.91201 -99.07835 27599 ft 400 kts 277°
2026-05-05 02:43 36.91476 -99.11291 27605 ft 399 kts 277°
2026-05-05 02:43 36.91748 -99.14755 27610 ft 400 kts 277°
2026-05-05 02:43 36.92015 -99.18217 27609 ft 400 kts 277°
2026-05-05 02:43 36.92277 -99.21685 27616 ft 400 kts 277°
2026-05-05 02:44 36.92542 -99.25154 27614 ft 402 kts 277°
2026-05-05 02:44 36.92813 -99.28628 27613 ft 401 kts 277°
2026-05-05 02:44 36.93081 -99.32094 27616 ft 401 kts 277°
2026-05-05 02:44 36.93349 -99.35570 27617 ft 401 kts 277°
2026-05-05 02:45 36.93608 -99.39043 27619 ft 402 kts 277°
2026-05-05 02:45 36.93863 -99.42527 27629 ft 402 kts 277°
2026-05-05 02:45 36.94118 -99.46001 27625 ft 402 kts 277°
2026-05-05 02:45 36.94376 -99.49480 27627 ft 402 kts 277°
2026-05-05 02:46 36.94632 -99.52958 27634 ft 401 kts 276°
2026-05-05 02:46 36.94892 -99.56434 27633 ft 402 kts 277°
2026-05-05 02:46 36.95151 -99.59914 27634 ft 400 kts 276°
2026-05-05 02:46 36.95404 -99.63376 27626 ft 400 kts 276°
2026-05-05 02:47 36.95658 -99.66840 27623 ft 401 kts 277°
2026-05-05 02:47 36.95912 -99.70323 27623 ft 402 kts 277°
2026-05-05 02:47 36.96162 -99.73755 27627 ft 402 kts 276°
2026-05-05 02:47 36.96413 -99.77239 27638 ft 404 kts 277°
2026-05-05 02:48 36.96663 -99.80737 27648 ft 403 kts 276°
2026-05-05 02:48 36.96912 -99.84218 27651 ft 403 kts 276°
2026-05-05 02:48 36.97161 -99.87701 27653 ft 403 kts 277°
2026-05-05 02:48 36.97411 -99.91187 27648 ft 401 kts 276°
2026-05-05 02:49 36.97655 -99.94661 27656 ft 401 kts 276°
2026-05-05 02:49 36.97898 -99.98150 27652 ft 404 kts 276°
2026-05-05 02:49 36.98144 -100.01647 27647 ft 404 kts 276°
2026-05-05 02:49 36.98388 -100.05140 27663 ft 402 kts 276°
2026-05-05 02:50 36.98630 -100.08627 27651 ft 402 kts 276°
2026-05-05 02:50 36.98867 -100.12114 27655 ft 402 kts 276°
2026-05-05 02:50 36.99101 -100.15592 27654 ft 402 kts 276°
2026-05-05 02:50 36.99338 -100.19082 27660 ft 401 kts 276°
2026-05-05 02:51 36.99578 -100.22551 27659 ft 401 kts 276°
2026-05-05 02:51 36.99821 -100.26025 27659 ft 400 kts 276°
2026-05-05 02:51 37.00062 -100.29502 27657 ft 402 kts 276°
2026-05-05 02:51 37.00301 -100.32987 27655 ft 402 kts 276°
2026-05-05 02:52 37.00537 -100.36478 27664 ft 403 kts 276°
2026-05-05 02:52 37.00770 -100.39968 27662 ft 403 kts 276°
2026-05-05 02:52 37.01005 -100.43454 27666 ft 402 kts 276°
2026-05-05 02:52 37.01242 -100.46941 27667 ft 402 kts 276°
2026-05-05 02:53 37.01473 -100.50432 27656 ft 403 kts 276°
2026-05-05 02:53 37.01700 -100.53929 27652 ft 404 kts 276°
2026-05-05 02:53 37.01928 -100.57426 27657 ft 403 kts 276°
2026-05-05 02:53 37.02153 -100.60909 27655 ft 402 kts 276°
2026-05-05 02:54 37.02380 -100.64400 27652 ft 402 kts 275°
2026-05-05 02:54 37.02603 -100.67888 27660 ft 403 kts 276°
2026-05-05 02:54 37.02821 -100.71342 27675 ft 403 kts 275°
2026-05-05 02:54 37.03040 -100.74840 27682 ft 404 kts 275°
2026-05-05 02:55 37.03258 -100.78329 27676 ft 402 kts 275°
2026-05-05 02:55 37.03480 -100.81815 27670 ft 402 kts 275°
2026-05-05 02:55 37.03705 -100.85345 27676 ft 403 kts 276°
2026-05-05 02:55 37.03928 -100.88847 27679 ft 403 kts 276°
2026-05-05 02:56 37.04147 -100.92334 27685 ft 402 kts 276°
2026-05-05 02:56 37.04359 -100.95774 27677 ft 402 kts 275°
2026-05-05 02:56 37.04579 -100.99263 27677 ft 401 kts 276°
2026-05-05 02:56 37.04846 -101.02747 27680 ft 402 kts 277°
2026-05-05 02:57 37.05147 -101.06225 27682 ft 402 kts 277°
2026-05-05 02:57 37.05457 -101.09706 27684 ft 403 kts 277°
2026-05-05 02:57 37.05767 -101.13192 27690 ft 403 kts 277°
2026-05-05 02:57 37.06066 -101.16688 27698 ft 404 kts 277°
2026-05-05 02:58 37.06359 -101.20184 27701 ft 403 kts 277°
2026-05-05 02:58 37.06647 -101.23679 27706 ft 403 kts 277°
2026-05-05 02:58 37.06928 -101.27165 27710 ft 402 kts 277°
2026-05-05 02:58 37.07207 -101.30647 27707 ft 401 kts 276°
2026-05-05 02:59 37.07481 -101.34122 27697 ft 401 kts 276°
2026-05-05 02:59 37.07757 -101.37603 27691 ft 403 kts 276°
2026-05-05 02:59 37.08034 -101.41088 27693 ft 403 kts 276°
2026-05-05 02:59 37.08310 -101.44574 27686 ft 402 kts 276°
2026-05-05 03:00 37.08586 -101.48059 27692 ft 402 kts 276°
2026-05-05 03:00 37.08861 -101.51553 27689 ft 403 kts 276°
2026-05-05 03:00 37.09133 -101.55035 27688 ft 401 kts 276°
2026-05-05 03:00 37.09403 -101.58513 27687 ft 401 kts 276°
2026-05-05 03:01 37.09677 -101.61989 27687 ft 401 kts 277°
2026-05-05 03:01 37.09957 -101.65479 27694 ft 402 kts 276°
2026-05-05 03:01 37.10237 -101.68958 27696 ft 401 kts 276°
2026-05-05 03:01 37.10509 -101.72422 27686 ft 400 kts 276°
2026-05-05 03:02 37.10772 -101.75890 27686 ft 400 kts 276°
2026-05-05 03:02 37.11033 -101.79361 27693 ft 401 kts 276°
2026-05-05 03:02 37.11293 -101.82835 27698 ft 400 kts 276°
2026-05-05 03:02 37.11556 -101.86299 27697 ft 401 kts 276°
2026-05-05 03:03 37.11819 -101.89773 27698 ft 401 kts 276°
2026-05-05 03:03 37.12080 -101.93242 27707 ft 400 kts 276°
2026-05-05 03:03 37.12342 -101.96727 27711 ft 402 kts 276°
2026-05-05 03:03 37.12606 -102.00209 27718 ft 401 kts 276°
2026-05-05 03:04 37.12868 -102.03686 27726 ft 401 kts 276°
2026-05-05 03:04 37.13124 -102.07155 27735 ft 399 kts 276°
2026-05-05 03:04 37.13375 -102.10626 27732 ft 400 kts 276°
2026-05-05 03:04 37.13627 -102.14088 27733 ft 398 kts 275°
2026-05-05 03:05 37.13874 -102.17545 27762 ft 398 kts 276°
2026-05-05 03:05 37.14118 -102.20984 27763 ft 395 kts 275°
2026-05-05 03:05 37.14366 -102.24421 27761 ft 395 kts 275°
2026-05-05 03:05 37.14618 -102.27870 27749 ft 399 kts 276°
2026-05-05 03:06 37.14881 -102.31323 27748 ft 398 kts 276°
2026-05-05 03:06 37.15141 -102.34768 27752 ft 396 kts 275°
2026-05-05 03:06 37.15391 -102.38195 27754 ft 393 kts 275°
2026-05-05 03:06 37.15634 -102.41606 27758 ft 394 kts 275°
2026-05-05 03:07 37.15878 -102.45017 27753 ft 392 kts 275°
2026-05-05 03:07 37.16116 -102.48423 27743 ft 392 kts 275°
2026-05-05 03:07 37.16346 -102.51774 27736 ft 390 kts 275°
2026-05-05 03:07 37.16583 -102.55171 27726 ft 393 kts 275°
2026-05-05 03:08 37.16829 -102.58637 27715 ft 393 kts 275°
2026-05-05 03:08 37.17065 -102.62006 27713 ft 394 kts 275°
2026-05-05 03:08 37.17301 -102.65430 27721 ft 394 kts 276°
2026-05-05 03:08 37.17536 -102.68847 27726 ft 394 kts 275°
2026-05-05 03:09 37.17771 -102.72274 27734 ft 396 kts 275°
2026-05-05 03:09 37.18004 -102.75719 27754 ft 396 kts 275°
2026-05-05 03:09 37.18240 -102.79160 27766 ft 397 kts 275°
2026-05-05 03:09 37.18475 -102.82603 27780 ft 395 kts 275°
2026-05-05 03:10 37.18710 -102.86031 27776 ft 396 kts 275°
2026-05-05 03:10 37.18938 -102.89473 27780 ft 394 kts 275°
2026-05-05 03:10 37.19166 -102.92891 27770 ft 393 kts 275°
2026-05-05 03:10 37.19399 -102.96308 27770 ft 393 kts 275°
2026-05-05 03:11 37.19624 -102.99704 27746 ft 391 kts 275°
2026-05-05 03:11 37.19848 -103.03100 27729 ft 392 kts 275°
2026-05-05 03:11 37.20074 -103.06507 27732 ft 393 kts 275°
2026-05-05 03:11 37.20299 -103.09922 27735 ft 391 kts 275°
2026-05-05 03:12 37.20451 -103.12219 27747 ft 391 kts 275°
2026-05-05 03:12 37.20673 -103.15626 27752 ft 392 kts 275°
2026-05-05 03:12 37.20888 -103.19041 27745 ft 393 kts 274°
2026-05-05 03:12 37.21100 -103.22463 27738 ft 395 kts 274°
2026-05-05 03:13 37.21319 -103.25905 27756 ft 397 kts 275°
2026-05-05 03:13 37.21544 -103.29338 27753 ft 394 kts 275°
2026-05-05 03:13 37.21770 -103.32762 27762 ft 394 kts 274°
2026-05-05 03:13 37.21987 -103.36194 27760 ft 396 kts 274°
2026-05-05 03:14 37.22195 -103.39594 27766 ft 394 kts 274°
2026-05-05 03:14 37.22407 -103.43068 27765 ft 394 kts 274°
2026-05-05 03:14 37.22621 -103.46497 27765 ft 393 kts 274°
2026-05-05 03:14 37.22831 -103.49911 27775 ft 392 kts 274°
2026-05-05 03:15 37.23044 -103.53325 27778 ft 394 kts 274°
2026-05-05 03:15 37.23258 -103.56743 27826 ft 394 kts 274°
2026-05-05 03:15 37.23468 -103.60163 27834 ft 394 kts 274°
2026-05-05 03:15 37.23670 -103.63539 27832 ft 393 kts 274°
2026-05-05 03:16 37.23880 -103.66969 27836 ft 395 kts 274°
2026-05-05 03:16 37.24096 -103.70390 27849 ft 393 kts 274°
2026-05-05 03:16 37.24308 -103.73850 27851 ft 392 kts 274°
2026-05-05 03:16 37.24514 -103.77210 27847 ft 391 kts 274°
2026-05-05 03:17 37.24717 -103.80602 27855 ft 390 kts 273°
2026-05-05 03:17 37.24906 -103.84010 27859 ft 392 kts 273°
2026-05-05 03:17 37.25106 -103.87428 27861 ft 392 kts 274°
2026-05-05 03:17 37.25309 -103.90824 27847 ft 389 kts 274°
2026-05-05 03:18 37.25508 -103.94217 27839 ft 392 kts 274°
2026-05-05 03:18 37.25704 -103.97626 27838 ft 392 kts 274°
2026-05-05 03:18 37.25900 -104.01040 27846 ft 392 kts 274°
2026-05-05 03:18 37.26098 -104.04445 27845 ft 391 kts 274°
2026-05-05 03:19 37.26493 -104.11256 27849 ft 392 kts 273°
2026-05-05 03:19 37.26681 -104.14685 27838 ft 394 kts 273°
2026-05-05 03:19 37.26867 -104.18122 27845 ft 395 kts 273°
2026-05-05 03:20 37.27057 -104.21552 27846 ft 391 kts 273°
2026-05-05 03:20 37.27245 -104.24960 27853 ft 392 kts 272°
2026-05-05 03:20 37.27435 -104.28373 27850 ft 392 kts 273°
2026-05-05 03:20 37.27627 -104.31784 27846 ft 391 kts 273°
2026-05-05 03:21 37.27816 -104.35189 27841 ft 391 kts 273°
2026-05-05 03:21 37.28003 -104.38598 27830 ft 391 kts 273°
2026-05-05 03:21 37.28188 -104.42007 27833 ft 391 kts 273°
2026-05-05 03:21 37.28371 -104.45412 27830 ft 393 kts 273°
2026-05-05 03:22 37.28557 -104.48842 27834 ft 393 kts 274°
2026-05-05 03:22 37.28739 -104.52255 27844 ft 393 kts 273°
2026-05-05 03:22 37.28918 -104.55690 27856 ft 394 kts 273°
2026-05-05 03:22 37.29093 -104.59107 27854 ft 391 kts 273°
2026-05-05 03:23 37.29267 -104.62534 27864 ft 394 kts 273°
2026-05-05 03:23 37.29446 -104.65965 27866 ft 396 kts 273°
2026-05-05 03:23 37.29628 -104.69418 27860 ft 396 kts 273°
2026-05-05 03:23 37.29809 -104.72852 27868 ft 394 kts 273°
2026-05-05 03:24 37.29987 -104.76231 27869 ft 393 kts 272°
2026-05-05 03:24 37.30169 -104.79688 27885 ft 392 kts 273°
2026-05-05 03:24 37.30350 -104.83087 27888 ft 389 kts 273°
2026-05-05 03:24 37.30529 -104.86490 27973 ft 392 kts 272°
2026-05-05 03:25 37.30865 -104.93344 28028 ft 394 kts 272°
2026-05-05 03:25 37.31195 -105.00224 28044 ft 392 kts 272°
2026-05-05 03:26 37.31528 -105.07107 28083 ft 395 kts 272°
2026-05-05 03:26 37.31857 -105.13917 28102 ft 392 kts 272°
2026-05-05 03:27 37.32180 -105.20790 28110 ft 393 kts 272°
2026-05-05 03:27 37.32506 -105.27614 28119 ft 394 kts 272°
2026-05-05 03:28 37.32845 -105.34471 28118 ft 394 kts 272°
2026-05-05 03:28 37.33161 -105.41361 28123 ft 396 kts 272°
2026-05-05 03:29 37.33467 -105.48260 28117 ft 395 kts 272°
2026-05-05 03:29 37.33773 -105.55144 28090 ft 395 kts 272°
2026-05-05 03:30 37.34083 -105.62024 28072 ft 393 kts 271°
2026-05-05 03:30 37.34378 -105.68893 28050 ft 394 kts 272°
2026-05-05 03:31 37.34674 -105.75771 28015 ft 394 kts 272°
2026-05-05 03:31 37.34817 -105.79208 27998 ft 394 kts 271°
2026-05-05 03:31 37.34938 -105.82639 28002 ft 393 kts 270°
2026-05-05 03:32 37.34990 -105.86070 27986 ft 391 kts 269°
2026-05-05 03:32 37.34987 -105.89487 27974 ft 392 kts 269°
2026-05-05 03:32 37.34961 -105.92918 27961 ft 392 kts 268°
2026-05-05 03:32 37.34927 -105.96342 27951 ft 392 kts 269°
2026-05-05 03:33 37.34901 -105.99769 27963 ft 394 kts 269°
2026-05-05 03:33 37.34883 -106.03229 27998 ft 398 kts 268°
2026-05-05 03:33 37.34867 -106.06707 27989 ft 398 kts 269°
2026-05-05 03:33 37.34863 -106.10185 27983 ft 396 kts 268°
2026-05-05 03:34 37.34857 -106.13650 27969 ft 396 kts 268°
2026-05-05 03:34 37.34846 -106.17125 27973 ft 397 kts 268°
2026-05-05 03:34 37.34830 -106.20595 27986 ft 397 kts 269°
2026-05-05 03:34 37.34820 -106.24068 27982 ft 398 kts 268°
2026-05-05 03:35 37.34811 -106.27545 27981 ft 398 kts 268°
2026-05-05 03:35 37.34797 -106.31028 27980 ft 399 kts 268°
2026-05-05 03:35 37.34784 -106.34505 27991 ft 398 kts 268°
2026-05-05 03:35 37.34771 -106.37996 28004 ft 400 kts 268°
2026-05-05 03:36 37.34727 -106.44938 28102 ft 399 kts 268°
2026-05-05 03:36 37.34681 -106.51907 28116 ft 398 kts 269°
2026-05-05 03:37 37.34631 -106.58856 28129 ft 397 kts 268°
2026-05-05 03:37 37.34571 -106.65779 28131 ft 395 kts 269°
2026-05-05 03:38 37.34521 -106.72675 28140 ft 395 kts 268°
2026-05-05 03:38 37.34475 -106.79615 28155 ft 398 kts 268°
2026-05-05 03:39 37.34412 -106.86559 28152 ft 397 kts 268°
2026-05-05 03:39 37.34334 -106.93481 28131 ft 396 kts 268°
2026-05-05 03:40 37.34263 -107.00367 28100 ft 396 kts 267°
2026-05-05 03:40 37.34192 -107.07286 28065 ft 396 kts 267°
2026-05-05 03:41 37.34105 -107.14207 28052 ft 398 kts 268°
2026-05-05 03:41 37.34028 -107.21157 28052 ft 397 kts 267°
2026-05-05 03:42 37.33949 -107.28097 28053 ft 398 kts 267°
2026-05-05 03:42 37.33853 -107.35063 28056 ft 398 kts 267°
2026-05-05 03:43 37.33753 -107.42027 28054 ft 399 kts 267°
2026-05-05 03:43 37.33660 -107.49012 28063 ft 399 kts 267°
2026-05-05 03:44 37.33564 -107.55940 28062 ft 398 kts 267°
2026-05-05 03:44 37.33449 -107.62942 28053 ft 398 kts 267°
2026-05-05 03:45 37.33329 -107.69871 28035 ft 400 kts 267°
2026-05-05 03:45 37.33202 -107.76860 28021 ft 400 kts 267°
2026-05-05 03:46 37.33086 -107.83834 28016 ft 399 kts 266°
2026-05-05 03:46 37.33025 -107.87322 27997 ft 399 kts 267°
2026-05-05 03:46 37.32965 -107.90802 27995 ft 399 kts 267°
2026-05-05 03:47 37.32906 -107.94280 27998 ft 398 kts 266°
2026-05-05 03:47 37.32845 -107.97758 27992 ft 398 kts 266°
2026-05-05 03:47 37.32777 -108.01230 27994 ft 397 kts 266°
2026-05-05 03:47 37.32706 -108.04694 27984 ft 398 kts 266°
2026-05-05 03:48 37.32633 -108.08177 27980 ft 400 kts 266°
2026-05-05 03:48 37.32565 -108.11677 27978 ft 401 kts 266°
2026-05-05 03:48 37.32498 -108.15179 27977 ft 401 kts 266°
2026-05-05 03:48 37.32429 -108.18682 27985 ft 401 kts 266°
2026-05-05 03:49 37.32358 -108.22183 27978 ft 401 kts 266°
2026-05-05 03:49 37.32285 -108.25685 27985 ft 400 kts 266°
2026-05-05 03:49 37.32206 -108.29173 27976 ft 400 kts 266°
2026-05-05 03:49 37.32131 -108.32657 27974 ft 399 kts 266°
2026-05-05 03:50 37.32058 -108.36149 27970 ft 399 kts 266°
2026-05-05 03:50 37.31988 -108.39626 27955 ft 398 kts 266°
2026-05-05 03:50 37.31915 -108.43094 27950 ft 397 kts 266°
2026-05-05 03:50 37.31840 -108.46569 27932 ft 399 kts 265°
2026-05-05 03:51 37.31757 -108.50057 27929 ft 398 kts 266°
2026-05-05 03:51 37.31671 -108.53529 27932 ft 398 kts 266°
2026-05-05 03:51 37.31584 -108.57012 27933 ft 399 kts 266°
2026-05-05 03:51 37.31495 -108.60494 27930 ft 400 kts 266°
2026-05-05 03:52 37.31404 -108.63985 27939 ft 399 kts 266°
2026-05-05 03:52 37.31313 -108.67469 27935 ft 398 kts 266°
2026-05-05 03:52 37.31225 -108.70953 27940 ft 399 kts 265°
2026-05-05 03:52 37.31138 -108.74441 27942 ft 400 kts 266°
2026-05-05 03:53 37.31049 -108.77936 27946 ft 401 kts 265°
2026-05-05 03:53 37.30959 -108.81444 27950 ft 403 kts 266°
2026-05-05 03:53 37.30872 -108.84966 27951 ft 404 kts 265°
2026-05-05 03:53 37.30783 -108.88491 27954 ft 404 kts 265°
2026-05-05 03:54 37.30693 -108.92014 27960 ft 403 kts 265°
2026-05-05 03:54 37.30602 -108.95529 27962 ft 403 kts 265°
2026-05-05 03:54 37.30506 -108.99048 27968 ft 403 kts 265°
2026-05-05 03:54 37.30413 -109.02565 27964 ft 403 kts 265°
2026-05-05 03:55 37.30349 -109.04942 27964 ft 402 kts 265°
2026-05-05 03:55 37.30251 -109.08415 27961 ft 403 kts 265°
2026-05-05 03:55 37.30147 -109.11929 27957 ft 402 kts 265°
2026-05-05 03:55 37.30042 -109.15439 27955 ft 402 kts 265°
2026-05-05 03:56 37.29938 -109.18946 27948 ft 403 kts 265°
2026-05-05 03:56 37.29837 -109.22464 27947 ft 403 kts 265°
2026-05-05 03:56 37.29738 -109.25975 27931 ft 402 kts 265°
2026-05-05 03:56 37.29635 -109.29489 27929 ft 403 kts 265°
2026-05-05 03:57 37.29529 -109.33006 27924 ft 403 kts 265°
2026-05-05 03:57 37.29421 -109.36526 27916 ft 404 kts 265°
2026-05-05 03:57 37.29312 -109.40057 27906 ft 405 kts 265°
2026-05-05 03:57 37.29202 -109.43583 27907 ft 404 kts 265°
2026-05-05 03:58 37.29091 -109.47098 27905 ft 402 kts 265°
2026-05-05 03:58 37.28981 -109.50597 27905 ft 402 kts 265°
2026-05-05 03:58 37.28871 -109.54118 27904 ft 403 kts 265°
2026-05-05 03:58 37.28760 -109.57635 27900 ft 403 kts 265°
2026-05-05 03:59 37.28646 -109.61158 27894 ft 404 kts 265°
2026-05-05 03:59 37.28530 -109.64692 27895 ft 405 kts 264°
2026-05-05 03:59 37.28413 -109.68224 27903 ft 405 kts 265°
2026-05-05 03:59 37.28299 -109.71758 27904 ft 405 kts 265°
2026-05-05 04:00 37.28187 -109.75286 27905 ft 405 kts 264°
2026-05-05 04:00 37.28069 -109.78822 27916 ft 405 kts 264°
2026-05-05 04:00 37.27946 -109.82352 27899 ft 404 kts 264°
2026-05-05 04:00 37.27818 -109.85872 27883 ft 404 kts 264°
2026-05-05 04:01 37.27688 -109.89396 27876 ft 404 kts 264°
2026-05-05 04:01 37.27559 -109.92916 27885 ft 403 kts 265°
2026-05-05 04:01 37.27436 -109.96429 27881 ft 402 kts 264°
2026-05-05 04:01 37.27318 -109.99949 27875 ft 404 kts 265°
2026-05-05 04:02 37.27198 -110.03463 27869 ft 403 kts 264°
2026-05-05 04:02 37.27075 -110.06981 27875 ft 404 kts 264°
2026-05-05 04:02 37.26946 -110.10502 27868 ft 404 kts 264°
2026-05-05 04:02 37.26810 -110.14023 27876 ft 405 kts 264°
2026-05-05 04:03 37.26679 -110.17546 27876 ft 404 kts 264°
2026-05-05 04:03 37.26545 -110.21071 27876 ft 405 kts 264°
2026-05-05 04:03 37.26409 -110.24608 27877 ft 405 kts 264°
2026-05-05 04:03 37.26274 -110.28144 27877 ft 405 kts 264°
2026-05-05 04:04 37.26138 -110.31674 27881 ft 405 kts 264°
2026-05-05 04:04 37.26007 -110.35210 27875 ft 405 kts 263°
2026-05-05 04:04 37.25873 -110.38741 27877 ft 406 kts 264°
2026-05-05 04:04 37.25737 -110.42279 27865 ft 405 kts 263°
2026-05-05 04:05 37.25599 -110.45815 27865 ft 406 kts 263°
2026-05-05 04:05 37.25452 -110.49362 27868 ft 406 kts 263°
2026-05-05 04:05 37.25305 -110.52910 27868 ft 407 kts 263°
2026-05-05 04:05 37.25161 -110.56404 27863 ft 406 kts 263°
2026-05-05 04:06 37.25014 -110.59944 27857 ft 406 kts 263°
2026-05-05 04:06 37.24865 -110.63536 27863 ft 407 kts 263°
2026-05-05 04:06 37.24720 -110.67080 27862 ft 406 kts 263°
2026-05-05 04:06 37.24576 -110.70577 27860 ft 407 kts 263°
2026-05-05 04:07 37.24429 -110.74126 27854 ft 407 kts 263°
2026-05-05 04:07 37.24282 -110.77677 27856 ft 408 kts 263°
2026-05-05 04:07 37.24134 -110.81233 27855 ft 409 kts 263°
2026-05-05 04:07 37.23988 -110.84800 27863 ft 410 kts 263°
2026-05-05 04:08 37.23836 -110.88376 27874 ft 411 kts 263°
2026-05-05 04:08 37.23677 -110.91952 27891 ft 410 kts 263°
2026-05-05 04:08 37.23512 -110.95525 27899 ft 410 kts 263°
2026-05-05 04:08 37.23349 -110.99093 27908 ft 409 kts 263°
2026-05-05 04:09 37.23196 -111.02648 27907 ft 408 kts 264°
2026-05-05 04:09 37.23039 -111.06205 27907 ft 408 kts 263°
2026-05-05 04:09 37.22879 -111.09757 27888 ft 408 kts 263°
2026-05-05 04:09 37.22716 -111.13316 27888 ft 408 kts 263°
2026-05-05 04:10 37.22554 -111.16871 27885 ft 408 kts 263°
2026-05-05 04:10 37.22389 -111.20416 27899 ft 407 kts 263°
2026-05-05 04:10 37.22223 -111.23971 27897 ft 408 kts 263°
2026-05-05 04:10 37.22063 -111.27523 27895 ft 407 kts 263°
2026-05-05 04:11 37.21899 -111.31071 27895 ft 407 kts 263°
2026-05-05 04:11 37.21733 -111.34611 27885 ft 407 kts 263°
2026-05-05 04:11 37.21571 -111.38150 27889 ft 407 kts 263°
2026-05-05 04:11 37.21407 -111.41691 27888 ft 407 kts 263°
2026-05-05 04:12 37.21239 -111.45235 27893 ft 408 kts 263°
2026-05-05 04:12 37.21065 -111.48784 27900 ft 407 kts 263°
2026-05-05 04:12 37.20890 -111.52328 27900 ft 407 kts 263°
2026-05-05 04:12 37.20718 -111.55872 27903 ft 407 kts 263°
2026-05-05 04:13 37.20544 -111.59416 27917 ft 407 kts 262°
2026-05-05 04:13 37.20377 -111.62914 27923 ft 407 kts 263°
2026-05-05 04:13 37.20202 -111.66455 27912 ft 407 kts 263°
2026-05-05 04:13 37.20020 -111.69998 27908 ft 408 kts 263°
2026-05-05 04:14 37.19677 -111.73510 27901 ft 404 kts 256°
2026-05-05 04:14 37.18902 -111.76893 27917 ft 403 kts 250°
2026-05-05 04:14 37.18001 -111.80224 27923 ft 403 kts 250°
2026-05-05 04:14 37.17106 -111.83547 27925 ft 401 kts 250°
2026-05-05 04:15 37.16212 -111.86869 27914 ft 404 kts 249°
2026-05-05 04:15 37.15314 -111.90198 27922 ft 404 kts 250°
2026-05-05 04:15 37.14412 -111.93538 27931 ft 404 kts 250°
2026-05-05 04:15 37.13515 -111.96869 27937 ft 404 kts 249°
2026-05-05 04:16 37.12611 -112.00199 27936 ft 403 kts 250°
2026-05-05 04:16 37.11710 -112.03527 27939 ft 403 kts 249°
2026-05-05 04:16 37.10809 -112.06855 27942 ft 403 kts 249°
2026-05-05 04:16 37.09907 -112.10180 27940 ft 403 kts 249°
2026-05-05 04:17 37.09004 -112.13501 27944 ft 402 kts 249°
2026-05-05 04:17 37.08099 -112.16814 27946 ft 403 kts 249°
2026-05-05 04:17 37.07194 -112.20136 27952 ft 403 kts 249°
2026-05-05 04:17 37.06289 -112.23456 27955 ft 403 kts 249°
2026-05-05 04:18 37.05378 -112.26776 27956 ft 403 kts 249°
2026-05-05 04:18 37.04470 -112.30090 27960 ft 403 kts 249°
2026-05-05 04:18 37.03560 -112.33410 27963 ft 403 kts 249°
2026-05-05 04:18 37.02650 -112.36725 27964 ft 403 kts 249°
2026-05-05 04:19 37.01735 -112.40038 27968 ft 403 kts 249°
2026-05-05 04:19 37.00817 -112.43355 27972 ft 403 kts 249°
2026-05-05 04:19 36.99906 -112.46666 27971 ft 403 kts 249°
2026-05-05 04:19 36.98993 -112.49987 27966 ft 403 kts 249°
2026-05-05 04:20 36.98080 -112.53307 27969 ft 404 kts 249°
2026-05-05 04:20 36.97165 -112.56629 27972 ft 404 kts 249°
2026-05-05 04:20 36.96248 -112.59953 27976 ft 404 kts 249°
2026-05-05 04:20 36.95328 -112.63270 27981 ft 404 kts 248°
2026-05-05 04:21 36.94405 -112.66588 27984 ft 404 kts 248°
2026-05-05 04:21 36.93481 -112.69909 27981 ft 404 kts 248°
2026-05-05 04:21 36.92556 -112.73230 27986 ft 405 kts 248°
2026-05-05 04:21 36.91630 -112.76552 27986 ft 404 kts 248°
2026-05-05 04:22 36.90707 -112.79861 27982 ft 404 kts 248°
2026-05-05 04:22 36.89780 -112.83174 27979 ft 404 kts 248°
2026-05-05 04:22 36.88851 -112.86483 27978 ft 404 kts 248°
2026-05-05 04:22 36.87921 -112.89799 27976 ft 404 kts 248°
2026-05-05 04:23 36.86993 -112.93115 27979 ft 405 kts 248°
2026-05-05 04:23 36.86064 -112.96432 27982 ft 405 kts 248°
2026-05-05 04:23 36.85131 -112.99757 27985 ft 406 kts 248°
2026-05-05 04:23 36.84197 -113.03082 27987 ft 406 kts 248°
2026-05-05 04:24 36.83263 -113.06398 27987 ft 404 kts 248°
2026-05-05 04:24 36.82331 -113.09709 27978 ft 405 kts 248°
2026-05-05 04:24 36.81395 -113.13030 27976 ft 405 kts 248°
2026-05-05 04:25 36.79520 -113.19658 27975 ft 405 kts 248°
2026-05-05 04:25 36.78574 -113.22974 27970 ft 405 kts 248°
2026-05-05 04:25 36.77628 -113.26288 27968 ft 406 kts 248°
2026-05-05 04:25 36.76684 -113.29608 27967 ft 406 kts 248°
2026-05-05 04:26 36.75742 -113.32925 27963 ft 406 kts 248°
2026-05-05 04:26 36.74800 -113.36243 27957 ft 405 kts 248°
2026-05-05 04:26 36.73857 -113.39557 27945 ft 406 kts 247°
2026-05-05 04:26 36.72910 -113.42873 27941 ft 406 kts 247°
2026-05-05 04:27 36.71963 -113.46187 27935 ft 406 kts 247°
2026-05-05 04:27 36.71017 -113.49501 27933 ft 406 kts 247°
2026-05-05 04:27 36.70071 -113.52814 27929 ft 406 kts 247°
2026-05-05 04:27 36.69126 -113.56127 27927 ft 406 kts 247°
2026-05-05 04:28 36.68183 -113.59443 27915 ft 406 kts 247°
2026-05-05 04:28 36.67236 -113.62755 27917 ft 406 kts 247°
2026-05-05 04:28 36.66288 -113.66064 27908 ft 406 kts 247°
2026-05-05 04:28 36.65341 -113.69375 27792 ft 406 kts 247°
2026-05-05 04:29 36.64389 -113.72696 26554 ft 410 kts 247°
2026-05-05 04:29 36.63414 -113.76079 24818 ft 421 kts 248°
2026-05-05 04:29 36.62412 -113.79553 23127 ft 430 kts 249°
2026-05-05 04:29 36.61404 -113.83053 22047 ft 427 kts 249°
2026-05-05 04:30 36.60411 -113.86505 21135 ft 420 kts 249°
2026-05-05 04:30 36.59401 -113.89893 20234 ft 414 kts 246°
2026-05-05 04:30 36.58059 -113.93040 19250 ft 410 kts 237°
2026-05-05 04:30 36.56367 -113.95878 18314 ft 407 kts 232°
2026-05-05 04:31 36.54639 -113.98648 17417 ft 404 kts 232°
2026-05-05 04:31 36.52940 -114.01385 16986 ft 391 kts 232°
2026-05-05 04:31 36.51317 -114.04007 16854 ft 374 kts 232°
2026-05-05 04:31 36.49767 -114.06511 16738 ft 357 kts 232°
2026-05-05 04:32 36.48295 -114.08885 16602 ft 336 kts 232°
2026-05-05 04:32 36.46908 -114.11118 16478 ft 317 kts 231°
2026-05-05 04:32 36.45591 -114.13232 16286 ft 303 kts 231°
2026-05-05 04:32 36.44322 -114.15273 16038 ft 296 kts 231°
2026-05-05 04:33 36.43071 -114.17279 15786 ft 292 kts 231°
2026-05-05 04:33 36.41831 -114.19262 15535 ft 290 kts 231°
2026-05-05 04:33 36.40598 -114.21239 15285 ft 289 kts 231°
2026-05-05 04:33 36.39372 -114.23207 15035 ft 287 kts 231°
2026-05-05 04:34 36.38144 -114.25159 14787 ft 286 kts 231°
2026-05-05 04:34 36.36918 -114.27090 14536 ft 284 kts 231°
2026-05-05 04:34 36.35691 -114.29015 14285 ft 284 kts 230°
2026-05-05 04:34 36.34465 -114.30930 14034 ft 284 kts 230°
2026-05-05 04:35 36.33243 -114.32838 13785 ft 282 kts 230°
2026-05-05 04:35 36.32024 -114.34736 13534 ft 281 kts 230°
2026-05-05 04:35 36.30807 -114.36633 13284 ft 280 kts 230°
2026-05-05 04:35 36.29599 -114.38523 13055 ft 280 kts 230°
2026-05-05 04:36 36.28393 -114.40412 12751 ft 279 kts 230°
2026-05-05 04:36 36.27192 -114.42293 12420 ft 278 kts 230°
2026-05-05 04:36 36.26395 -114.43542 12188 ft 279 kts 230°
2026-05-05 04:36 36.25195 -114.45416 11839 ft 276 kts 230°
2026-05-05 04:37 36.23998 -114.47268 11493 ft 275 kts 230°
2026-05-05 04:37 36.22796 -114.49107 11148 ft 274 kts 230°
2026-05-05 04:37 36.21596 -114.50937 10802 ft 273 kts 230°
2026-05-05 04:37 36.20400 -114.52761 10446 ft 272 kts 230°
2026-05-05 04:38 36.19209 -114.54582 10092 ft 272 kts 230°
2026-05-05 04:38 36.18018 -114.56405 9745 ft 272 kts 230°
2026-05-05 04:38 36.16831 -114.58227 9403 ft 272 kts 230°
2026-05-05 04:38 36.15644 -114.60043 9053 ft 271 kts 230°
2026-05-05 04:39 36.14453 -114.61860 8815 ft 272 kts 230°
2026-05-05 04:39 36.13263 -114.63671 8638 ft 272 kts 230°
2026-05-05 04:39 36.12074 -114.65481 8450 ft 270 kts 230°
2026-05-05 04:39 36.10920 -114.67244 8343 ft 257 kts 230°
2026-05-05 04:40 36.09824 -114.68923 8232 ft 244 kts 230°
2026-05-05 04:40 36.08786 -114.70513 8132 ft 231 kts 230°
2026-05-05 04:40 36.07863 -114.72075 8029 ft 220 kts 240°
2026-05-05 04:40 36.07383 -114.73813 7972 ft 211 kts 258°
2026-05-05 04:41 36.07317 -114.75589 7802 ft 211 kts 266°
2026-05-05 04:41 36.07326 -114.77426 7539 ft 209 kts 266°
2026-05-05 04:41 36.07332 -114.79217 7267 ft 209 kts 266°
2026-05-05 04:41 36.07337 -114.81005 6993 ft 208 kts 266°
2026-05-05 04:42 36.07341 -114.82782 6717 ft 207 kts 266°
2026-05-05 04:42 36.07345 -114.84550 6447 ft 205 kts 266°
2026-05-05 04:42 36.07348 -114.86303 6175 ft 202 kts 266°
2026-05-05 04:42 36.07351 -114.88030 5913 ft 200 kts 266°
2026-05-05 04:43 36.07353 -114.89747 5645 ft 199 kts 267°
2026-05-05 04:43 36.07355 -114.91433 5395 ft 198 kts 267°
2026-05-05 04:43 36.07358 -114.93132 5128 ft 193 kts 266°
2026-05-05 04:43 36.07361 -114.94744 4874 ft 187 kts 266°
2026-05-05 04:44 36.07362 -114.96330 4625 ft 182 kts 266°
2026-05-05 04:44 36.07362 -114.97877 4385 ft 178 kts 266°
2026-05-05 04:44 36.07364 -114.99407 4149 ft 174 kts 266°
2026-05-05 04:44 36.07366 -115.00886 3924 ft 168 kts 266°
2026-05-05 04:45 36.07367 -115.02209 3718 ft 145 kts 265°
2026-05-05 04:45 36.07367 -115.03383 3532 ft 131 kts 265°
2026-05-05 04:45 36.07366 -115.04477 3363 ft 125 kts 264°
2026-05-05 04:45 36.07365 -115.05548 3196 ft 123 kts 265°
2026-05-05 04:46 36.07366 -115.06601 3044 ft 122 kts 267°
2026-05-05 04:46 36.07366 -115.07660 2881 ft 123 kts 267°
2026-05-05 04:46 36.07366 -115.08716 2718 ft 123 kts 267°
2026-05-05 04:46 36.07366 -115.09778 2554 ft 124 kts 267°
2026-05-05 04:47 36.07366 -115.10840 2385 ft 123 kts 267°
2026-05-05 04:47 36.07367 -115.11912 2321 ft 125 kts 268°
2026-05-05 04:47 36.07368 -115.12978 2213 ft 124 kts 268°
2026-05-05 04:47 36.07366 -115.13966 2190 ft 98 kts 270°
2026-05-05 04:48 36.07365 -115.14582 2190 ft 39 kts 270°
2026-05-05 04:48 36.07399 -115.14869 2192 ft 31 kts 290°
2026-05-05 04:48 36.07481 -115.15063 2188 ft 23 kts 309°
2026-05-05 04:48 36.07609 -115.15178 2190 ft 22 kts 334°
2026-05-05 04:49 36.07751 -115.15260 2189 ft 22 kts 335°
2026-05-05 04:49 36.07882 -115.15336 2189 ft 21 kts 334°
2026-05-05 04:49 36.08021 -115.15417 2188 ft 23 kts 335°
2026-05-05 04:49 36.08167 -115.15501 2189 ft 24 kts 334°
2026-05-05 04:50 36.08318 -115.15588 2191 ft 24 kts 335°
2026-05-05 04:50 36.08452 -115.15665 2188 ft 14 kts 340°
2026-05-05 04:50 36.08531 -115.15624 2189 ft 13 kts 32°
2026-05-05 04:50 36.08616 -115.15570 2189 ft 14 kts 26°
2026-05-05 04:51 36.08699 -115.15517 2190 ft 13 kts 31°
2026-05-05 04:51 36.08696 -115.15424 2188 ft 12 kts 116°
2026-05-05 04:51 36.08677 -115.15376 2188 ft 3 kts 115°
2026-05-05 04:51 36.08676 -115.15374 2188 ft 0 kts 115°